FW6320 Weather Reports


Display with metric or nautical units.
time (UTC)temp
F
wind
direction
speed
MPH
gust
MPH
rain 1hr
in
rain 24hr
in
rain mn
in
humidity
%
barometer
mb
20260904225522 96 101 5.0 14.0 0.00 0.00 0.00 46 1011.1
20260904225020 97 138 8.0 14.0 0.00 0.00 0.00 45 1011.3
20260904224541 97 158 2.0 11.0 0.00 0.00 0.00 45 1011.2
20260904224024 97 174 4.0 11.0 0.00 0.00 0.00 45 1011.2
20260904223524 97 194 3.0 13.0 0.00 0.00 0.00 46 1011.2
20260904223047 97 182 7.0 14.0 0.00 0.00 0.00 45 1011.3
20260904222522 97 113 6.0 14.0 0.00 0.00 0.00 45 1011.3
20260904222021 97 122 8.0 14.0 0.00 0.00 0.00 45 1011.2
20260904221541 97 134 7.0 16.0 0.00 0.00 0.00 46 1011.3
20260904221021 97 157 7.0 16.0 0.00 0.00 0.00 45 1011.4
20260904220520 97 119 4.0 16.0 0.00 0.00 0.00 46 1011.3
20260904215528 97 123 5.0 16.0 0.00 0.00 0.00 46 1011.5
20260904215026 97 171 6.0 12.0 0.00 0.00 0.00 47 1011.6
20260904214546 98 182 3.0 11.0 0.00 0.00 0.00 47 1011.6
20260904214022 97 121 4.0 11.0 0.00 0.00 0.00 48 1011.5
20260904213525 97 129 5.0 12.0 0.00 0.00 0.00 47 1011.6
20260904213050 97 150 4.0 12.0 0.00 0.00 0.00 47 1011.7
20260904212526 97 140 7.0 12.0 0.00 0.00 0.00 46 1011.7
20260904212021 98 136 4.0 12.0 0.00 0.00 0.00 46 1011.8
20260904211543 98 144 5.0 12.0 0.00 0.00 0.00 48 1011.9
20260904211019 98 171 6.0 12.0 0.00 0.00 0.00 47 1011.9
20260904210519 98 188 4.0 10.0 0.00 0.00 0.00 46 1011.9
20260904210040 98 219 4.0 13.0 0.00 0.00 0.00 47 1012.0
20260904205524 98 143 4.0 13.0 0.00 0.00 0.00 47 1012.0
20260904205018 97 152 3.0 13.0 0.00 0.00 0.00 47 1012.2
20260904204551 97 136 3.0 17.0 0.00 0.00 0.00 47 1012.2
20260904204025 97 139 7.0 17.0 0.00 0.00 0.00 46 1012.3
20260904203524 97 163 6.0 12.0 0.00 0.00 0.00 47 1012.4
20260904203044 96 163 7.0 14.0 0.00 0.00 0.00 47 1012.4
20260904202522 98 147 5.0 14.0 0.00 0.00 0.00 46 1012.4
20260904202023 97 194 7.0 14.0 0.00 0.00 0.00 46 1012.5
20260904201555 97 202 6.0 14.0 0.00 0.00 0.00 47 1012.6
20260904201024 97 126 8.0 14.0 0.00 0.00 0.00 46 1012.6
20260904200521 97 140 4.0 14.0 0.00 0.00 0.00 47 1012.7
20260904200045 97 161 4.0 13.0 0.00 0.00 0.00 48 1012.8
20260904195521 96 175 6.0 18.0 0.00 0.00 0.00 48 1012.9
20260904195025 96 138 5.0 18.0 0.00 0.00 0.00 47 1012.9
20260904194551 96 137 7.0 18.0 0.00 0.00 0.00 47 1012.9
20260904194028 97 197 5.0 11.0 0.00 0.00 0.00 47 1013.0
20260904193524 96 163 3.0 13.0 0.00 0.00 0.00 48 1013.0
20260904193046 96 176 6.0 14.0 0.00 0.00 0.00 48 1013.0
20260904192527 95 170 4.0 14.0 0.00 0.00 0.00 51 1013.1
20260904192025 96 142 6.0 14.0 0.00 0.00 0.00 49 1013.3
20260904191543 96 132 4.0 14.0 0.00 0.00 0.00 49 1013.2
20260904191022 96 155 5.0 14.0 0.00 0.00 0.00 48 1013.3
20260904190522 96 141 4.0 16.0 0.00 0.00 0.00 47 1013.4
20260904190042 96 170 5.0 16.0 0.00 0.00 0.00 49 1013.5
20260904185520 95 153 3.0 18.0 0.00 0.00 0.00 50 1013.5
20260904185020 95 153 8.0 18.0 0.00 0.00 0.00 49 1013.5
20260904184548 95 122 5.0 16.0 0.00 0.00 0.00 50 1013.7
20260904184028 95 119 5.0 16.0 0.00 0.00 0.00 51 1013.7
20260904183527 94 201 8.0 16.0 0.00 0.00 0.00 51 1013.8
20260904183043 93 148 4.0 14.0 0.00 0.00 0.00 50 1013.8
20260904182525 94 202 4.0 16.0 0.00 0.00 0.00 49 1013.9
20260904182030 94 145 6.0 16.0 0.00 0.00 0.00 47 1013.9
20260904181541 94 187 3.0 12.0 0.00 0.00 0.00 47 1014.0
20260904181025 93 194 6.0 12.0 0.00 0.00 0.00 47 1014.0
20260904180524 92 177 5.0 11.0 0.00 0.00 0.00 46 1014.1
20260904180055 93 211 4.0 12.0 0.00 0.00 0.00 47 1014.3
20260904175521 92 198 5.0 12.0 0.00 0.00 0.00 46 1014.3
20260904175020 92 183 5.0 12.0 0.00 0.00 0.00 46 1014.4
20260904174550 91 200 6.0 11.0 0.00 0.00 0.00 46 1014.4
20260904174019 91 199 4.0 10.0 0.00 0.00 0.00 48 1014.4
20260904173522 91 167 5.0 10.0 0.00 0.00 0.00 48 1014.5
20260904173105 90 184 4.0 10.0 0.00 0.00 0.00 53 1014.5
20260904172527 89 206 5.0 10.0 0.00 0.00 0.00 56 1014.6
20260904172022 89 196 6.0 12.0 0.00 0.00 0.00 59 1014.7
20260904171552 89 203 6.0 12.0 0.00 0.00 0.00 60 1014.8
20260904171023 89 233 6.0 13.0 0.00 0.00 0.00 60 1014.8
20260904170517 88 190 7.0 13.0 0.00 0.00 0.00 60 1014.9
20260904170049 89 213 5.0 12.0 0.00 0.00 0.00 58 1014.9
20260904165525 88 213 6.0 12.0 0.00 0.00 0.00 61 1014.9
20260904165025 87 198 5.0 11.0 0.00 0.00 0.00 63 1015.0
20260904164549 87 207 5.0 12.0 0.00 0.00 0.00 64 1015.0
20260904164024 86 214 6.0 12.0 0.00 0.00 0.00 65 1015.0
20260904163529 86 202 6.0 12.0 0.00 0.00 0.00 65 1015.0
20260904163046 86 199 5.0 9.0 0.00 0.00 0.00 65 1015.1
20260904162524 86 189 4.0 9.0 0.00 0.00 0.00 65 1015.1
20260904162021 86 209 6.0 11.0 0.00 0.00 0.00 65 1015.1
20260904161543 86 221 4.0 11.0 0.00 0.00 0.00 64 1015.0
20260904161025 85 199 6.0 11.0 0.00 0.00 0.00 65 1015.0
20260904160528 85 196 6.0 10.0 0.00 0.00 0.00 65 1015.1
20260904160048 85 207 5.0 10.0 0.00 0.00 0.00 64 1015.1
20260904155524 85 195 5.0 9.0 0.00 0.00 0.00 66 1015.0
20260904155025 84 200 4.0 8.0 0.00 0.00 0.00 69 1015.0
20260904154549 84 173 4.0 8.0 0.00 0.00 0.00 71 1015.0
20260904154023 84 207 4.0 8.0 0.00 0.00 0.00 71 1015.0
20260904153526 84 192 3.0 10.0 0.00 0.00 0.00 72 1015.0
20260904153050 84 205 4.0 10.0 0.00 0.00 0.00 72 1015.0
20260904152524 84 211 5.0 10.0 0.00 0.00 0.00 72 1015.0
20260904152024 84 219 4.0 10.0 0.00 0.00 0.00 73 1014.9
20260904151546 84 178 3.0 10.0 0.00 0.00 0.00 74 1014.8
20260904151026 84 182 2.0 11.0 0.00 0.00 0.00 74 1014.9
20260904150529 84 190 3.0 11.0 0.00 0.00 0.00 74 1014.8
20260904150053 84 192 3.0 9.0 0.00 0.00 0.00 75 1014.8
20260904145524 83 203 4.0 9.0 0.00 0.00 0.00 75 1014.9
20260904145025 83 232 4.0 11.0 0.00 0.00 0.00 75 1015.0
20260904144552 84 178 3.0 11.0 0.00 0.00 0.00 76 1014.8
20260904144023 83 192 5.0 11.0 0.00 0.00 0.00 77 1014.8
20260904143521 82 232 3.0 8.0 0.00 0.00 0.00 80 1014.7
20260904143043 82 196 3.0 7.0 0.00 0.00 0.00 80 1014.8
20260904142525 81 186 1.0 7.0 0.00 0.00 0.00 81 1014.8
20260904142026 81 134 2.0 11.0 0.00 0.00 0.00 82 1014.7
20260904141548 80 175 2.0 11.0 0.00 0.00 0.00 82 1014.6
20260904141024 80 175 5.0 11.0 0.00 0.00 0.00 83 1014.7
20260904140524 80 159 2.0 11.0 0.00 0.00 0.00 83 1014.6
20260904140049 80 140 2.0 11.0 0.00 0.00 0.00 83 1014.6
20260904135525 80 142 5.0 13.0 0.00 0.00 0.00 84 1014.6
20260904135024 80 150 4.0 13.0 0.00 0.00 0.00 84 1014.5
20260904134547 80 160 4.0 11.0 0.00 0.00 0.00 84 1014.4
20260904134022 80 145 4.0 11.0 0.00 0.00 0.00 84 1014.4
20260904133525 79 129 5.0 9.0 0.00 0.00 0.00 84 1014.4
20260904133042 79 125 4.0 9.0 0.00 0.00 0.00 85 1014.4
20260904132525 79 0 2.0 9.0 0.00 0.00 0.00 85 1014.4
20260904132024 79 134 5.0 10.0 0.00 0.00 0.00 84 1014.3
20260904131547 79 137 2.0 10.0 0.00 0.00 0.00 85 1014.3
20260904131028 79 0 4.0 8.0 0.00 0.00 0.00 85 1014.3
20260904130524 79 151 3.0 9.0 0.00 0.00 0.00 85 1014.1
20260904130047 79 140 3.0 9.0 0.00 0.00 0.00 85 1014.1
20260904125527 79 137 4.0 9.0 0.00 0.00 0.00 85 1014.2
20260904125024 79 150 2.0 8.0 0.00 0.00 0.00 85 1014.0
20260904124558 79 0 1.0 10.0 0.00 0.00 0.00 85 1014.0
20260904124026 78 139 5.0 10.0 0.00 0.00 0.00 85 1014.0
20260904123525 78 139 5.0 8.0 0.00 0.00 0.00 85 1013.9
20260904123049 78 137 4.0 8.0 0.00 0.00 0.00 85 1013.9
20260904122524 78 139 3.0 7.0 0.00 0.00 0.00 85 1014.0
20260904122022 78 137 2.0 7.0 0.00 0.00 0.00 85 1013.9
20260904121541 78 138 3.0 9.0 0.00 0.00 0.00 85 1013.8
20260904121024 78 130 3.0 9.0 0.00 0.00 0.00 85 1013.7
20260904120524 78 146 2.0 7.0 0.00 0.00 0.00 85 1013.6
20260904120047 78 0 0.0 3.0 0.00 0.00 0.00 85 1013.5
20260904115525 78 0 1.0 7.0 0.00 0.00 0.00 85 1013.5
20260904115028 78 173 1.0 7.0 0.00 0.00 0.00 85 1013.6
20260904114549 78 141 1.0 5.0 0.00 0.00 0.00 85 1013.7
20260904114025 78 144 2.0 8.0 0.00 0.00 0.00 85 1013.7
20260904113524 78 122 3.0 8.0 0.00 0.00 0.00 85 1013.6
20260904113052 78 0 1.0 5.0 0.00 0.00 0.00 85 1013.6
20260904112525 78 0 0.0 3.0 0.00 0.00 0.00 85 1013.5
20260904112026 78 143 0.0 7.0 0.00 0.00 0.00 85 1013.5
20260904111543 78 146 1.0 8.0 0.00 0.00 0.00 85 1013.6
20260904111024 78 142 3.0 8.0 0.00 0.00 0.00 85 1013.5
20260904110525 78 144 4.0 9.0 0.00 0.00 0.00 85 1013.4
20260904110049 78 148 4.0 9.0 0.00 0.00 0.00 85 1013.5
20260904105526 78 141 3.0 9.0 0.00 0.00 0.00 85 1013.5
20260904105025 78 142 3.0 9.0 0.00 0.00 0.00 85 1013.6
20260904104552 78 140 3.0 9.0 0.00 0.00 0.00 85 1013.5
20260904104023 78 151 1.0 6.0 0.00 0.00 0.00 85 1013.5
20260904103526 78 143 2.0 6.0 0.00 0.00 0.00 85 1013.4
20260904103048 78 0 0.0 4.0 0.00 0.00 0.00 84 1013.3
20260904102522 78 0 0.0 5.0 0.00 0.00 0.00 84 1013.4
20260904102023 78 0 0.0 9.0 0.00 0.00 0.00 85 1013.3
20260904101543 78 185 0.0 9.0 0.00 0.00 0.00 85 1013.3
20260904101022 78 153 2.0 9.0 0.00 0.00 0.00 84 1013.3
20260904100525 79 136 1.0 8.0 0.00 0.00 0.00 84 1013.3
20260904100043 79 144 3.0 8.0 0.00 0.00 0.00 84 1013.3
20260904095524 79 0 0.0 7.0 0.00 0.00 0.00 83 1013.2
20260904095024 79 0 1.0 8.0 0.00 0.00 0.00 83 1013.1
20260904094600 79 0 1.0 8.0 0.00 0.00 0.00 83 1013.1
20260904094024 79 0 1.0 8.0 0.00 0.00 0.00 83 1013.1
20260904093527 79 156 2.0 8.0 0.00 0.00 0.00 83 1013.2
20260904093048 79 159 1.0 7.0 0.00 0.00 0.00 83 1013.2
20260904092522 79 0 1.0 7.0 0.00 0.00 0.00 83 1013.2
20260904092021 79 155 1.0 10.0 0.00 0.00 0.00 83 1013.2
20260904091542 79 0 1.0 10.0 0.00 0.00 0.00 83 1013.0
20260904091023 79 139 2.0 6.0 0.00 0.00 0.00 83 1013.1
20260904090521 79 0 1.0 5.0 0.00 0.00 0.00 83 1013.1
20260904090040 79 0 1.0 12.0 0.00 0.00 0.00 83 1013.0
20260904085524 79 182 2.0 12.0 0.00 0.00 0.00 83 1013.1
20260904085026 79 0 4.0 12.0 0.00 0.00 0.00 83 1013.1
20260904084548 79 162 1.0 10.0 0.00 0.00 0.00 83 1013.0
20260904084023 79 0 3.0 10.0 0.00 0.00 0.00 82 1013.1
20260904083525 79 143 2.0 9.0 0.00 0.00 0.00 82 1012.9
20260904083044 79 147 1.0 8.0 0.00 0.00 0.00 82 1013.0
20260904082524 79 144 2.0 8.0 0.00 0.00 0.00 81 1013.0
20260904082022 79 163 3.0 8.0 0.00 0.00 0.00 81 1013.0
20260904081600 79 173 1.0 8.0 0.00 0.00 0.00 81 1013.0
20260904081025 79 142 2.0 7.0 0.00 0.00 0.00 80 1012.9
20260904080525 79 152 0.0 5.0 0.00 0.00 0.00 80 1013.1
20260904080042 79 0 0.0 5.0 0.00 0.00 0.00 80 1013.0
20260904075525 80 196 2.0 8.0 0.00 0.00 0.00 80 1013.1
20260904075026 80 179 2.0 8.0 0.00 0.00 0.00 79 1013.0
20260904074604 80 0 2.0 6.0 0.00 0.00 0.00 79 1013.0
20260904074024 80 206 2.0 7.0 0.00 0.00 0.00 79 1013.1
20260904073524 80 193 2.0 7.0 0.00 0.00 0.00 78 1013.1
20260904073100 80 182 1.0 7.0 0.00 0.00 0.00 78 1013.1
20260904072523 80 198 1.0 8.0 0.00 0.00 0.00 78 1013.1
20260904072021 80 199 3.0 8.0 0.00 0.00 0.00 78 1013.3
20260904071543 80 183 3.0 8.0 0.00 0.00 0.00 77 1013.3
20260904071025 80 193 2.0 8.0 0.00 0.00 0.00 77 1013.3
20260904070528 80 184 2.0 7.0 0.00 0.00 0.00 77 1013.3
20260904070053 80 147 0.0 9.0 0.00 0.00 0.00 76 1013.3
20260904065523 80 155 2.0 9.0 0.00 0.00 0.00 76 1013.3
20260904065025 80 183 3.0 9.0 0.00 0.00 0.00 76 1013.3
20260904064548 80 0 3.0 9.0 0.00 0.00 0.00 75 1013.5
20260904064021 80 190 2.0 13.0 0.00 0.00 0.00 75 1013.5
20260904063521 81 203 3.0 13.0 0.00 0.00 0.00 75 1013.4
20260904063042 81 119 1.0 9.0 0.00 0.00 0.00 74 1013.4
20260904062523 81 160 2.0 9.0 0.00 0.00 0.00 74 1013.4
20260904062021 81 136 1.0 8.0 0.00 0.00 0.00 73 1013.4
20260904061541 81 0 2.0 8.0 0.00 0.00 0.00 73 1013.4
20260904061028 81 162 1.0 7.0 0.00 0.00 0.00 73 1013.4
20260904060526 81 137 1.0 8.0 0.00 0.00 0.00 72 1013.5
20260904060043 81 0 2.0 8.0 0.00 0.00 0.00 72 1013.4
20260904055523 81 150 1.0 7.0 0.00 0.00 0.00 72 1013.4
20260904055025 81 0 2.0 8.0 0.00 0.00 0.00 72 1013.4
20260904054549 81 157 0.0 9.0 0.00 0.00 0.00 72 1013.4
20260904054022 81 165 3.0 10.0 0.00 0.00 0.00 71 1013.5
20260904053521 81 0 3.0 10.0 0.00 0.00 0.00 72 1013.6
20260904053042 81 146 3.0 9.0 0.00 0.00 0.00 72 1013.6
20260904052521 81 119 3.0 9.0 0.00 0.00 0.00 72 1013.5
20260904052025 81 143 4.0 11.0 0.00 0.00 0.00 72 1013.5
20260904051543 81 121 5.0 13.0 0.00 0.00 0.00 72 1013.4
20260904051025 81 137 6.0 13.0 0.00 0.00 0.00 72 1013.4
20260904050525 81 142 3.0 12.0 0.00 0.00 0.00 72 1013.3
20260904050050 81 148 7.0 12.0 0.00 0.00 0.00 72 1013.3
20260904045525 81 130 5.0 12.0 0.00 0.00 0.00 72 1013.2
20260904045027 81 146 7.0 13.0 0.00 0.00 0.00 72 1013.2
20260904044547 81 158 5.0 13.0 0.00 0.00 0.00 72 1013.2
20260904044027 81 143 5.0 11.0 0.00 0.00 0.00 72 1013.1
20260904043525 81 146 7.0 11.0 0.00 0.00 0.00 72 1013.2
20260904043054 81 145 6.0 11.0 0.00 0.00 0.00 72 1013.1
20260904042523 81 137 5.0 11.0 0.00 0.00 0.00 72 1013.1
20260904042022 81 134 6.0 11.0 0.00 0.00 0.00 72 1013.1
20260904041543 82 144 6.0 11.0 0.00 0.00 0.00 71 1013.2
20260904041024 82 153 5.0 12.0 0.00 0.00 0.00 71 1013.3
20260904040525 82 143 7.0 14.0 0.00 0.00 0.00 71 1013.3
20260904040052 82 142 6.0 14.0 0.00 0.00 0.00 71 1013.3
20260904035525 82 153 7.0 14.0 0.00 0.00 0.00 71 1013.3
20260904035024 82 160 7.0 14.0 0.00 0.00 0.00 71 1013.3
20260904034552 82 123 6.0 10.0 0.00 0.00 0.00 71 1013.3
20260904034022 82 145 6.0 11.0 0.00 0.00 0.00 71 1013.3
20260904033529 82 137 6.0 14.0 0.00 0.00 0.00 71 1013.3
20260904033042 83 140 8.0 14.0 0.00 0.00 0.00 71 1013.3
20260904032523 83 147 8.0 12.0 0.00 0.00 0.00 72 1013.2
20260904032018 83 142 6.0 14.0 0.00 0.00 0.00 73 1013.3
20260904031544 83 137 8.0 14.0 0.00 0.00 0.00 73 1013.3
20260904031024 83 139 9.0 13.0 0.00 0.00 0.00 73 1013.3
20260904030525 83 142 7.0 14.0 0.00 0.00 0.00 73 1013.2
20260904030049 83 124 9.0 14.0 0.00 0.00 0.00 73 1013.2
20260904025524 83 140 7.0 15.0 0.00 0.00 0.00 73 1013.1
20260904025023 83 146 7.0 15.0 0.00 0.00 0.00 72 1013.1
20260904024541 84 159 10.0 18.0 0.00 0.00 0.00 72 1013.0
20260904024023 84 139 8.0 18.0 0.00 0.00 0.00 71 1012.9
20260904023518 84 129 12.0 18.0 0.00 0.00 0.00 69 1012.7
20260904023042 85 155 8.0 15.0 0.00 0.00 0.00 66 1012.7
20260904022525 85 141 5.0 13.0 0.00 0.00 0.00 65 1012.5
20260904022025 85 134 8.0 16.0 0.00 0.00 0.00 65 1012.5
20260904021555 85 133 7.0 16.0 0.00 0.00 0.00 66 1012.3
20260904021025 85 152 5.0 12.0 0.00 0.00 0.00 66 1012.3
20260904020525 85 151 7.0 14.0 0.00 0.00 0.00 66 1012.2
20260904020041 85 149 5.0 14.0 0.00 0.00 0.00 66 1012.0
20260904015525 85 124 5.0 13.0 0.00 0.00 0.00 66 1011.9
20260904015024 86 134 6.0 13.0 0.00 0.00 0.00 66 1011.9
20260904014623 86 141 7.0 13.0 0.00 0.00 0.00 66 1011.8
20260904014024 86 137 5.0 15.0 0.00 0.00 0.00 66 1011.7
20260904013522 86 136 5.0 15.0 0.00 0.00 0.00 66 1011.7
20260904013043 87 149 10.0 15.0 0.00 0.00 0.00 65 1011.7
20260904012521 87 121 6.0 15.0 0.00 0.00 0.00 65 1011.6
20260904012021 87 171 6.0 15.0 0.00 0.00 0.00 65 1011.5
20260904011542 87 129 6.0 15.0 0.00 0.00 0.00 65 1011.5
20260904011023 87 148 10.0 15.0 0.00 0.00 0.00 64 1011.4
20260904010525 87 134 9.0 15.0 0.00 0.00 0.00 64 1011.5
20260904010049 88 138 9.0 15.0 0.00 0.00 0.00 64 1011.5
20260904005524 88 142 8.0 14.0 0.00 0.00 0.00 64 1011.4
20260904005024 88 149 9.0 14.0 0.00 0.00 0.00 64 1011.4
20260904004547 88 123 7.0 15.0 0.00 0.00 0.00 64 1011.5
20260904004025 88 129 7.0 15.0 0.00 0.00 0.00 65 1011.4
20260904003523 88 144 10.0 16.0 0.00 0.00 0.00 64 1011.3
20260904003041 88 136 8.0 16.0 0.00 0.00 0.00 64 1011.3
20260904002523 88 150 10.0 16.0 0.00 0.00 0.00 64 1011.3
20260904002021 89 141 8.0 15.0 0.00 0.00 0.00 64 1011.2
20260904001542 89 163 8.0 18.0 0.00 0.00 0.00 64 1011.2
20260904001025 89 151 11.0 18.0 0.00 0.00 0.00 64 1011.2
20260904000518 89 154 9.0 15.0 0.00 0.00 0.00 64 1011.1
20260904000135 89 117 9.0 15.0 0.00 0.00 0.00 64 1011.2
20260903235529 89 139 8.0 14.0 0.00 0.00 0.00 64 1011.0
20260903235025 89 121 8.0 14.0 0.00 0.00 0.00 64 1011.0
20260903234551 90 165 8.0 12.0 0.00 0.00 0.00 63 1010.9
20260903234024 90 128 8.0 12.0 0.00 0.00 0.00 63 1011.0
20260903233519 90 172 4.0 13.0 0.00 0.00 0.00 63 1011.1
20260903233042 90 146 7.0 14.0 0.00 0.00 0.00 62 1010.9
20260903232528 90 121 8.0 14.0 0.00 0.00 0.00 62 1010.6
20260903232018 90 161 9.0 14.0 0.00 0.00 0.00 62 1010.5
20260903231555 91 154 7.0 15.0 0.00 0.00 0.00 62 1010.6
20260903231020 91 120 8.0 15.0 0.00 0.00 0.00 61 1010.4
20260903230526 91 141 9.0 18.0 0.00 0.00 0.00 61 1010.5
20260903230044 91 114 5.0 18.0 0.00 0.00 0.00 61 1010.6